[[{"header":{"parameterUnit":"m.s-1","parameterCategory":1,"la1":30.2991,"la2":30.254,"lo1":-89.0895,"lo2":-89.0444,"dy":0.0017,"dx":0.0017,"nx":28,"ny":28,"refTime":"2023-10-28T03:00:00:Z","depth":0,"parameterNumber":2,"parameterNumberName":"U-component_of_WINDS"},"data":[0,0,0,0,0,0,0,0,0,0,0,0,0,0,0,0,0,0,0,0,0,0,0,0,0,0,0,0,0,0,0,0,0,0,0,0,0,0,0,0,0,0,0,0,0,0,0,0,0,0,0,0,0,0,0,0,0,0,-2.2907,-2.2907,0,-2.2932,-2.2933,-2.2933,-2.2882,-2.288,-2.2878,-2.2877,-2.2902,-2.2904,-2.2906,0,0,0,0,0,0,0,0,0,0,0,0,0,-2.2815,-2.2817,-2.2907,-2.2907,-2.2908,-2.2932,-2.2933,-2.2933,-2.2882,-2.288,-2.2878,-2.2876,-2.2901,-2.2904,-2.2906,0,0,0,0,0,0,0,0,0,0,0,0,0,-2.2849,-2.2818,-2.2907,-2.2885,-2.2884,-2.2932,-2.2933,-2.2933,-2.2882,-2.288,-2.2877,-2.2875,-2.29,-2.2903,-2.2907,-2.2977,0,0,-2.2917,-2.2918,0,0,0,0,0,0,0,0,-2.2847,-2.2853,-2.2888,-2.2887,-2.2885,-2.2901,-2.2909,-2.2948,-2.2883,-2.2883,-2.2877,-2.2874,-2.2904,-2.2906,-2.2917,-2.2979,-2.298,-2.2917,-2.2919,-2.2921,-2.2922,0,0,0,0,0,0,0,-2.2845,-2.2851,-2.2917,-2.2889,-2.2887,-2.2874,-2.2876,-2.2916,-2.2907,-2.2883,-2.2879,-2.2883,-2.2902,-2.2914,-2.2917,-2.298,-2.2917,-2.292,-2.2922,-2.2923,-2.3103,-2.3105,0,0,0,0,0,0,-2.2845,-2.285,-2.2916,-2.2918,-2.286,-2.2878,-2.288,-2.2899,-2.2906,-2.2905,-2.2885,-2.288,-2.2909,-2.2913,-2.2918,-2.3001,-2.2921,-2.2924,-2.2926,-2.31,-2.3103,-2.3106,0,0,0,0,0,0,-2.2844,-2.2852,-2.2915,-2.2883,-2.289,-2.2882,-2.2903,-2.29,-2.2912,-2.2908,-2.2906,-2.2898,-2.2907,-2.2913,-2.2963,-2.3001,-2.2925,-2.2928,-2.3097,-2.3101,-2.3105,-2.3169,0,0,0,0,0,0,-2.2841,-2.2851,-2.2878,-2.2884,-2.2892,-2.296,-2.2906,-2.2903,-2.2918,-2.2912,-2.292,-2.2919,-2.2906,-2.2959,-2.2967,-2.3005,-2.2931,-2.3093,-2.3099,-2.3104,-2.3164,-2.3175,-2.3185,0,0,0,0,0,-2.2838,-2.2894,-2.2879,-2.2888,-2.2925,-2.2963,-2.2967,-2.2951,-2.2921,-2.2948,-2.2946,-2.2919,-2.2997,-2.2964,-2.2973,-2.3012,-2.3091,-2.3097,-2.3103,-2.3159,-2.3173,-2.3185,0,0,0,0,0,0,-2.2892,-2.2895,-2.2878,-2.2938,-2.2951,-2.2954,-2.2987,-2.2966,-2.2987,-2.2981,-2.296,-2.2963,-2.3017,-2.302,-2.2984,-2.3082,-2.3038,-2.3047,-2.3078,-2.3091,-2.3102,-2.3099,-2.2934,0,0,0,0,0,-2.2912,-2.2942,-2.2943,-2.2996,-2.3003,-2.2994,-2.301,-2.2997,-2.3009,-2.3014,-2.3015,-2.3028,-2.3055,-2.3074,-2.3098,-2.3165,-2.3166,-2.3196,-2.3207,-2.3216,-2.3223,-2.3259,-2.3273,-2.3127,-2.3127,-2.3127,0,0,-2.2951,-2.2956,-2.2976,-2.3007,-2.3015,-2.3047,-2.2999,-2.3035,-2.3059,-2.3019,-2.3067,-2.3069,-2.3082,-2.3141,-2.3167,-2.3145,-2.3264,-2.3224,-2.3231,-2.3233,-2.3267,-2.3281,-2.3293,-2.3131,-2.313,-2.313,0,0,-2.3039,-2.3046,-2.3091,-2.3101,-2.3115,-2.3109,-2.312,-2.3127,-2.3127,-2.3175,-2.3147,-2.3175,-2.3222,-2.3233,-2.3245,-2.334,-2.3316,-2.3349,-2.3404,-2.344,-2.3451,-2.3461,-2.3496,-2.3508,-2.3356,-2.3357,-2.3357,0,-2.3086,-2.3134,-2.3117,-2.3156,-2.317,-2.3137,-2.3183,-2.3194,-2.3215,-2.3225,-2.3201,-2.3261,-2.3267,-2.3329,-2.3352,-2.3363,-2.3375,-2.3347,-2.3451,-2.3461,-2.347,-2.3502,-2.3515,-2.336,-2.336,-2.336,-2.3359,0,-2.3191,-2.3225,-2.326,-2.3282,-2.3301,-2.3343,-2.3333,-2.3354,-2.334,-2.3338,-2.3388,-2.3395,-2.3421,-2.3435,-2.3421,-2.3495,-2.3481,-2.3454,-2.341,-2.3488,-2.3518,-2.3531,-2.3366,-2.3365,-2.3363,-2.3363,0,0,-2.3312,-2.3326,-2.3339,-2.3349,-2.3363,-2.3389,-2.3431,-2.3457,-2.3476,-2.3492,-2.3526,-2.3569,-2.3545,-2.3558,-2.3546,-2.3577,-2.3653,-2.3546,-2.3546,-2.3566,-2.3736,-2.3755,-2.377,-2.3638,-2.364,-2.3642,-2.3735,0,-2.3399,-2.347,-2.3458,-2.3527,-2.3559,-2.3529,-2.3566,-2.3578,-2.3578,-2.3605,-2.3604,-2.3634,-2.36,-2.3608,-2.3638,-2.3637,-2.3687,-2.3631,-2.367,-2.3671,-2.3667,-2.3786,-2.3806,-2.3893,-2.3746,-2.3748,-2.375,0,-2.351,-2.3532,-2.3604,-2.3615,-2.3628,-2.366,-2.3685,-2.3711,-2.3725,-2.3722,-2.3739,-2.3722,-2.3764,-2.372,-2.3778,-2.374,-2.3756,-2.3759,-2.3762,-2.3764,-2.3715,-2.3791,-2.392,-2.3933,-2.3768,-2.3767,-2.3765,0,-2.3591,-2.3638,-2.3688,-2.3698,-2.3711,-2.3735,-2.3742,-2.3754,-2.3771,-2.3793,-2.3804,-2.383,-2.3844,-2.3865,-2.3856,-2.3825,-2.3916,-2.3871,-2.3915,-2.3915,-2.3934,-2.3933,-2.4067,-2.3946,-2.3945,-2.3945,-2.3945,0,-2.3689,-2.3735,-2.3725,-2.3755,-2.3806,-2.3792,-2.3843,-2.3846,-2.3858,-2.3889,-2.3865,-2.3895,-2.3881,-2.391,-2.3903,-2.3953,-2.3959,-2.3958,-2.3956,-2.396,-2.396,-2.3969,-2.3963,-2.3949,-2.3948,-2.3947,-2.3947,0,-2.3787,-2.3782,-2.3835,-2.3844,-2.3848,-2.3885,-2.3893,-2.3922,-2.392,-2.396,-2.3969,-2.3966,-2.3999,-2.3992,-2.4029,-2.4024,-2.4086,-2.4077,-2.4082,-2.4079,-2.4123,-2.4119,-2.4267,-2.4286,-2.4153,-2.4154,-2.4155,0,-2.385,-2.3884,-2.3898,-2.3918,-2.3926,-2.3958,-2.3976,-2.3964,-2.3984,-2.4005,-2.4032,-2.4063,-2.4087,-2.4142,-2.4144,-2.4172,-2.4162,-2.4212,-2.4166,-2.417,-2.4163,-2.4161,-2.4165,-2.4221,-2.4223,-2.4224,-2.4225,0,-2.3962,-2.3958,-2.3985,-2.4012,-2.4035,-2.4055,-2.4074,-2.4091,-2.4081,-2.4105,-2.4139,-2.4158,-2.4196,-2.4228,-2.4255,-2.4262,-2.4242,-2.424,-2.4251,-2.4256,-2.4257,-2.4257,-2.4106,-2.4236,-2.4235,-2.4234,-2.4234,-2.4233,-2.4044,-2.4074,-2.4088,-2.412,-2.4133,-2.4151,-2.4179,-2.4182,-2.421,-2.4241,-2.4232,-2.4271,-2.4287,-2.4321,-2.4331,-2.4362,-2.4343,-2.436,-2.4364,-2.4369,-2.4374,-2.4253,-2.4367,-2.4367,-2.4366,-2.4366,-2.4366,0,-2.4154,-2.4163,-2.4192,-2.4219,-2.4244,-2.4225,-2.4245,-2.4267,-2.4302,-2.4318,-2.4343,-2.4383,-2.4415,-2.442,-2.445,-2.4474,-2.4465,-2.4482,-2.4479,-2.4482,-2.4389,-2.4376,-2.4488,-2.4488,-2.4488,-2.4488,-2.4488,-2.4488,-2.4215,-2.4265,-2.4263,-2.432,-2.4328,-2.4367,-2.438,-2.4397,-2.441,-2.4456,-2.4482,-2.4486,-2.4498,-2.4529,-2.4557,-2.4558,-2.457,-2.459,-2.4587,-2.45,-2.4488,-2.4476,-2.4464,-2.4593,-2.4593,-2.4677,-2.4678,-2.4679]},{"header":{"parameterUnit":"m.s-1","parameterCategory":1,"la1":30.2991,"la2":30.254,"lo1":-89.0895,"lo2":-89.0444,"dy":0.0017,"dx":0.0017,"nx":28,"ny":28,"refTime":"2023-10-28T03:00:00:Z","depth":0,"parameterNumber":3,"parameterNumberName":"V-component_of_WINDS"},"data":[0,0,0,0,0,0,0,0,0,0,0,0,0,0,0,0,0,0,0,0,0,0,0,0,0,0,0,0,0,0,0,0,0,0,0,0,0,0,0,0,0,0,0,0,0,0,0,0,0,0,0,0,0,0,0,0,0,0,1.9733,1.9734,0,1.9827,1.9828,1.9829,1.9876,1.9876,1.9876,1.9876,1.9966,1.9969,1.9971,0,0,0,0,0,0,0,0,0,0,0,0,0,1.9591,1.9594,1.9733,1.9734,1.9735,1.9826,1.9828,1.9829,1.9876,1.9876,1.9876,1.9876,1.9966,1.9968,1.9971,0,0,0,0,0,0,0,0,0,0,0,0,0,1.9665,1.9594,1.9733,1.977,1.9774,1.9826,1.9828,1.9829,1.9876,1.9876,1.9876,1.9876,1.9965,1.9968,1.9972,1.9992,0,0,1.9983,1.9984,0,0,0,0,0,0,0,0,1.9661,1.9671,1.9763,1.9767,1.9772,1.984,1.9811,1.9884,1.9876,1.9837,1.9876,1.9876,1.9924,1.9931,1.9948,1.9997,2.0001,1.9983,1.9985,1.9987,1.9988,0,0,0,0,0,0,0,1.9656,1.9667,1.977,1.9764,1.977,1.9781,1.9791,1.9825,1.9879,1.984,1.9844,1.9855,1.9926,1.9944,1.995,2.0002,1.9983,1.9986,1.9988,1.999,2.0075,2.0075,0,0,0,0,0,0,1.9645,1.9662,1.9767,1.9773,1.9716,1.9783,1.9795,1.9818,1.9879,1.9888,1.9855,1.9857,1.9938,1.9946,1.9954,1.9984,1.9987,1.999,1.9992,2.0075,2.0075,2.0075,0,0,0,0,0,0,1.9642,1.9654,1.9763,1.9719,1.9733,1.9786,1.9811,1.982,1.9838,1.9889,1.9899,1.9864,1.9939,1.9949,1.9983,1.9987,1.9991,1.9995,2.0074,2.0075,2.0075,2.0042,0,0,0,0,0,0,1.9638,1.9653,1.9662,1.9718,1.9735,1.9792,1.9811,1.9821,1.9845,1.9848,1.99,1.9909,1.994,1.9978,1.9987,1.9992,1.9997,2.0074,2.0074,2.0075,2.0043,2.0041,2.004,0,0,0,0,0,1.9633,1.9647,1.9662,1.9674,1.9748,1.9792,1.9801,1.9838,1.9845,1.9854,1.9888,1.9907,1.9986,1.9981,1.9992,1.9998,2.0074,2.0074,2.0075,2.0044,2.0042,2.004,0,0,0,0,0,0,1.9587,1.9655,1.9672,1.9706,1.9743,1.98,1.9812,1.9834,1.9869,1.987,1.9913,1.9924,1.9955,1.998,1.9974,2.0023,2.0032,2.0034,2.0005,2.0003,2.0002,1.9995,2.0,0,0,0,0,0,1.9581,1.9613,1.967,1.9694,1.9712,1.9759,1.9779,1.9805,1.9844,1.986,1.9895,1.9932,1.9965,1.9986,2.0019,2.0048,2.006,2.0058,2.0056,2.0054,2.0055,2.0074,2.0074,2.0076,2.0076,2.0076,0,0,1.9568,1.961,1.9626,1.9686,1.9718,1.9749,1.9772,1.9803,1.9826,1.9864,1.99,1.9927,1.9971,2.0003,2.0019,2.0025,2.0058,2.0054,2.0053,2.0055,2.0075,2.0075,2.0074,2.0076,2.0076,2.0076,0,0,1.9562,1.9596,1.9621,1.9653,1.9702,1.9734,1.974,1.9794,1.9815,1.9852,1.9882,1.991,1.9965,1.9996,2.0018,2.0027,2.0047,2.0036,2.0027,2.0045,2.0045,2.0045,2.0049,2.0049,2.0037,2.0037,2.0037,0,1.9539,1.9589,1.963,1.9661,1.9686,1.9725,1.9751,1.9779,1.9835,1.9852,1.9858,1.9931,1.9963,2.0004,2.0006,2.0023,2.0031,2.003,2.0042,2.0042,2.0043,2.0047,2.0048,2.0036,2.0036,2.0036,2.0036,0,1.9559,1.9593,1.9607,1.9664,1.9691,1.9718,1.9764,1.9786,1.981,1.9841,1.9879,1.9919,1.9962,1.9973,1.9995,2.0018,2.0021,2.0034,2.0044,2.0041,2.0045,2.0047,2.0034,2.0034,2.0035,2.0035,0,0,1.9524,1.9606,1.961,1.9638,1.9696,1.9722,1.9752,1.9797,1.9815,1.9853,1.988,1.9928,1.9941,1.9967,1.9993,2.0009,2.0015,2.0021,2.0022,2.0019,2.0044,2.0033,2.0035,2.0029,2.0029,2.003,2.004,0,1.9526,1.9583,1.9623,1.9664,1.9696,1.9735,1.9761,1.9799,1.9829,1.986,1.9893,1.9927,1.9942,1.9958,1.9976,2.001,2.002,2.001,2.0053,2.0054,2.0041,2.0037,2.0026,2.0034,2.0042,2.0042,2.0043,0,1.9535,1.9575,1.962,1.9678,1.9693,1.9716,1.9761,1.979,1.9835,1.9856,1.9887,1.9914,1.9947,1.9955,2.0002,1.9994,2.0014,2.0034,2.0035,2.004,2.0048,2.0042,2.0037,2.0038,2.0046,2.0046,2.0045,0,1.9505,1.9571,1.9607,1.9629,1.9696,1.9712,1.974,1.9786,1.9811,1.985,1.9867,1.9908,1.9931,1.9962,2.0,2.0003,2.0043,2.0054,2.0061,2.006,2.0067,2.0066,2.0065,2.008,2.008,2.008,2.008,0,1.9503,1.9529,1.9595,1.9617,1.9648,1.9694,1.9723,1.9754,1.9795,1.9823,1.9859,1.9884,1.9934,1.9965,1.9995,2.003,2.0039,2.0057,2.0065,2.0054,2.0052,2.0067,2.0068,2.008,2.008,2.008,2.008,0,1.9475,1.952,1.9562,1.9624,1.9641,1.9661,1.9713,1.9736,1.977,1.9806,1.9817,1.9868,1.9908,1.995,2.0003,2.0023,2.0056,2.0067,2.0042,2.0046,2.0052,2.0051,2.0061,2.0065,2.0076,2.0076,2.0076,0,1.947,1.9492,1.9558,1.9581,1.9609,1.9645,1.9672,1.9718,1.9744,1.9799,1.9815,1.9858,1.9895,1.9956,1.9998,2.0039,2.0051,2.0052,2.0057,2.0047,2.0052,2.005,2.0053,2.0049,2.0049,2.0049,2.0049,0,1.9458,1.948,1.9518,1.9565,1.9597,1.9635,1.9675,1.9691,1.9745,1.9773,1.9815,1.9844,1.99,1.9942,1.9989,2.0018,2.0042,2.0047,2.0051,2.004,2.0025,2.0034,2.0037,2.0046,2.0046,2.0047,2.0047,2.0047,1.9442,1.9464,1.9514,1.9556,1.9592,1.9629,1.9654,1.9692,1.9729,1.978,1.9805,1.9847,1.9893,1.9959,1.9988,2.0021,2.0028,2.0034,2.0035,2.0036,2.0034,2.002,2.003,2.003,2.003,2.003,2.003,0,1.9432,1.9467,1.9505,1.9561,1.9595,1.9618,1.9663,1.9689,1.9727,1.9769,1.9806,1.9855,1.9897,1.9944,1.9988,2.0006,2.0019,2.0017,2.0015,2.0022,2.0024,2.0017,2.0006,2.0006,2.0006,2.0006,2.0006,2.0006,1.943,1.9469,1.9498,1.9555,1.959,1.9634,1.9658,1.9693,1.9727,1.9782,1.9818,1.9849,1.9893,1.9941,1.9981,1.9994,2.0008,2.0003,2.0019,2.002,2.0021,2.0023,2.0017,2.0006,2.0006,2.0014,2.0014,2.0014]}]]